Flag for France Weather past 2 weeks in Toulouse, France

Now
61 °F

Overcast.


Feels Like: 61 °F
Forecast: 52 / 69 °F
Wind: 15 mph from Northwest

Location: Toulouse / Blagnac

Current Time: May 25, 2015 at 10:36:05 AM

Latest Report: May 25, 2015 at 10:00 AM


Visibility: N/A

Pressure: 30.12 "Hg

Humidity: 83%

Dew point: 55 °F

Location of ToulouseLocation

Historic Weather in Toulouse — Graph

°F

Toulouse temperature yesterday

Maximum temperature yesterday: 73 °F (at 5:00 PM)
Minimum temperature yesterday: 55 °F (at 3:00 AM)
Average temperature yesterday: 64 °F

Past Weeks' High & Low Weather Summary

 TemperatureHumidityPressure
High84 °F (May 11, 4:30 PM)94% (May 13, 5:00 AM)30.42 "Hg (May 13, 5:00 AM)
Low46 °F (May 21, 7:00 AM)20% (May 10, 6:30 PM)29.89 "Hg (May 18, 6:00 PM)
Average62 °F69%30.16 "Hg
* Reported May 10 9:00 AM — May 25 9:30 AM, Toulouse, Weather by CustomWeather, © 2015

Note: Actual official high and low records may vary slightly from our data, if they occured in-between our weather recording intervals... More about our weather records

Advertising

Toulouse weather history for previous 24 hours

 ConditionsComfort  
Time TempWeatherWind HumidityBarometerVisibility
9:30 AM
Mon, May 25
59 °FOvercast.15 mph88%30.12 "HgN/A
9:00 AM59 °FLow clouds.16 mph88%30.12 "HgN/A
8:30 AM59 °FOvercast.12 mph88%30.12 "HgN/A
8:00 AM57 °FMostly cloudy.9 mph94%30.12 "HgN/A
7:30 AM59 °FMostly cloudy.12 mph88%30.12 "HgN/A
7:00 AM59 °FPartly cloudy.12 mph88%30.09 "HgN/A
6:30 AM57 °FPartly cloudy.10 mph94%30.09 "HgN/A
6:00 AM59 °FPartly cloudy.13 mph88%30.09 "HgN/A
5:30 AM59 °FPartly cloudy.14 mph88%30.09 "HgN/A
5:00 AM59 °FClear.14 mph94%30.09 "HgN/A
4:30 AM59 °FClear.13 mph94%30.09 "HgN/A
4:00 AM59 °FClear.15 mph94%30.09 "HgN/A
3:30 AM59 °FClear.14 mph94%30.09 "HgN/A
3:00 AM61 °FClear.14 mph88%30.09 "HgN/A
2:30 AM61 °FClear.16 mph88%30.09 "HgN/A
2:00 AM63 °FMild.15 mph83%30.09 "HgN/A
1:30 AM63 °FClear.13 mph83%30.09 "HgN/A
1:00 AM63 °FClear.12 mph83%30.09 "HgN/A
12:30 AM64 °FClear.13 mph78%30.09 "HgN/A
12:00 AM64 °FClear.13 mph78%30.09 "HgN/A
11:30 PM
Sun, May 24
64 °FClear.14 mph78%30.09 "HgN/A
11:00 PM64 °FMild.12 mph73%30.09 "HgN/A
10:30 PM64 °FClear.10 mph73%30.09 "HgN/A
10:00 PM66 °FClear.10 mph68%30.07 "HgN/A
9:30 PM66 °FClear.10 mph68%30.07 "HgN/A
9:00 PM66 °FClear.9 mph64%30.07 "HgN/A
8:30 PM68 °FClear.10 mph60%30.07 "HgN/A
8:00 PM70 °FClear.10 mph53%30.07 "HgN/A
7:30 PM70 °FClear.12 mph50%30.07 "HgN/A
7:00 PM72 °FClear.13 mph44%30.07 "HgN/A
6:30 PM72 °FPartly sunny.14 mph44%30.07 "HgN/A
6:00 PM72 °FClear.12 mph47%30.07 "HgN/A
5:30 PM72 °FClear.13 mph47%30.07 "HgN/A
5:00 PM73 °FClear.14 mph47%30.07 "HgN/A
4:30 PM72 °FClear.9 mph53%30.07 "HgN/A
4:00 PM68 °FOvercast.12 mph56%30.09 "HgN/A
3:30 PM70 °FMore clouds than sun.7 mph50%30.09 "HgN/A
3:00 PM70 °FClear.9 mph53%30.09 "HgN/A
2:30 PM70 °FBroken clouds.10 mph46%30.09 "HgN/A
2:00 PM70 °FPartly sunny.9 mph53%30.09 "HgN/A
1:30 PM68 °FPartly sunny.10 mph56%30.09 "HgN/A
1:00 PM68 °FPartly sunny.12 mph60%30.09 "HgN/A
12:30 PM68 °FBroken clouds.12 mph64%30.09 "HgN/A
12:00 PM68 °FBroken clouds.10 mph64%30.12 "HgN/A
11:30 AM66 °FMostly cloudy.9 mph68%30.12 "HgN/A
11:00 AM64 °FMostly cloudy.8 mph73%30.12 "HgN/A
10:30 AM63 °FCloudy.10 mph77%30.12 "HgN/A
10:00 AM63 °FOvercast.12 mph77%30.12 "HgN/A
Weather by CustomWeather, © 2015

See weather overviewHow to use our weather pages